パンスターズ彗星

C/2015 O1 ( PanSTARRS )

English version
Home page
Updated on August 6, 2017

---------------------------------------------------------------------

・ プロフィール

発見日 2015年7月19日
発見光度 19.6等
発見者 Pan-STARRS 1 telescope (Haleakala)

・ 写真集

・ 軌道要素

Epoch 2018 Feb. 11.0 TT = JDT 2458160.5
T 2018 Feb. 19.04012 TT                                 MPCW
q   3.7295012            (2000.0)            P               Q
z  -0.0000303      Peri.   89.59813     -0.52098688     -0.50148178
 +/-0.0000009      Node   299.85557     -0.59857411     +0.79153781
e   1.0001131      Incl.  127.21102     +0.60850777     +0.34926196
From 408 observations 2015 June 15-2017 May 1, mean residual 0".5.

・ 星図

・ 光度変化

        m1 = 7.0 + 5 logΔ + 7.5 log r

---------------------------------------------------------------------

軌道要素はM.P.E.C. 2017-J52に掲載されたものです。
星図はステラナビゲータ Ver.8 (アストロアーツ) で作成したものです。
光度グラフはComet for Windowsで作成したものです。

---------------------------------------------------------------------

Copyright(C) Seiichi Yoshida (comet@aerith.net). All rights reserved.